SL-14 DEB, 43321

Orbit data source: Space-Track

SL-14 DEB, 43321 is space debris in LEO originally from a launch on Tue, 02 Dec 1986 UTC launched from the Plesetsk Missile And Space Complex (PKMTR). Debris objects in space refer to the collection of defunct objects orbiting the Earth. Examples of debris include non-operational satellites, rocket bodies, and fragments generated from explosions, collisions, or faulty payload assembly.

Loading next visibility...
Identifier
43321, 1986-094D
Orbit
LEO
Country
Flag of CISCIS
Related business
Manufacturer
Unknown
Mission
Spacecraft
Bus & Motor
Unknown
Mass
Unknown
Launch date (UTC)
1986-12-02 (39 years ago)
Launch vehicle
Unknown
Launch site
Plesetsk Missile And Space Complex (PKMTR)
Object type
Payload
Rocket body
Debris
Shape & HBR
Unknown shape, 0.1 m
Radar Cross Section
Small (<0.1 m²)

Expand to show TLE details & history
Last TLE update: 2 weeks ago

TLE from 2 weeks ago
0 SL-14 DEB
1 43321U 86094D   26135.97410116  .00000036  00000-0  18708-3 0  9992
2 43321  82.6089  26.1875 0002875 104.7045 269.1433 12.42166751987018
Epoch: 2026-05-15T23:22Z
TLE epoch observation values (Epoch: 2026-05-15T23:22:42.340Z)
Latitude
13.66737°
Longitude
163.61215°
Altitude
1,499.44 km
Speed
7.116 km/s
True Right ascension
01h 51m 56s
True Declination
13° 35' 46"
Sunlit
Object was in daylight at epoch
Visualization orbit readout
Latitude
Unknown
Longitude
Unknown
Altitude
Unknown
Speed
Unknown
Apparent Right ascension
Unknown
Apparent Declination
Unknown
Sunlit
N/A
Visualization observer readout
Local Sidereal Time
16:15:37
Azimuth
Unknown
Elevation
Unknown
Doppler factor
Unknown
Orbital elements
Apogee altitude
1,497.043 km
Perigee altitude
1,492.516 km
Semi-major axis
7,872.917 km
Eccentricity
0.00029
Inclination
82.6089°
RAAN
26.1875°
Arg. of periapsis
104.7045°
True anomaly
269.11036°
Mean anomaly
269.1433°
Eccentric anomaly
269.12683°
Mean motion
3.10699 °/min
Orbital period
115.87 mins
BSTAR
0.00018708
Loading maneuver chart data...
Computing Atmospheric mass density...
Loading historical data...
Loading historical data...
Loading historical data...
Loading historical data...
Loading historical data...
Loading historical data...
Loading historical data...
Other satellites on launch #94 in the year 1986 (1986-12-02 UTC)

Documentation

Showing up to 5 results
|